Lapse_Rate
2.2 1.8 1.6 1.5 1.6 1.6 1.6 1.4 1.1 1.4 1.3 0.9 0.8 1.0 1.7 2.2 3.1 3.4 3.7 4.0 4.1 3.9 3.7 3.8 3.7 3.5 4.3 2.8 4.7 5.1 4.8 4.4 5.6 5.9 4.4 5.1 4.8 5.0 6.5 5.9 5.9 6.4 6.4 5.4 4.9 3.8 4.3
2.2 2.0 1.7 1.7 1.6 1.6 1.5 1.5 1.2 1.2 1.3 0.8 0.7 1.2 1.8 2.4 2.7 3.1 3.4 3.8 4.0 3.9 3.8 3.7 3.8 4.1 5.0 5.6 5.0 4.6 3.9 4.6 4.0 5.2 4.2 3.7 4.2 3.7 4.8 5.9 6.2 5.8 5.7 6.1 5.6 5.3 5.5
2.4 2.1 1.7 1.8 1.7 1.6 1.4 1.4 1.3 1.2 1.1 0.9 0.5 0.7 1.5 2.1 2.7 3.1 3.3 3.6 3.8 3.9 3.9 3.9 4.0 3.2 2.1 5.0 4.7 4.4 3.6 4.6 3.5 4.9 4.9 4.1 4.6 4.6 4.5 6.2 5.4 5.9 6.5 6.5 6.4 6.2 6.3
2.5 2.4 2.1 1.8 1.6 1.5 1.3 1.2 1.1 1.2 1.0 0.8 0.5 0.4 1.1 1.9 2.4 3.0 3.2 3.2 3.6 4.0 3.8 4.2 4.3 3.0 4.3 5.5 5.2 3.4 2.8 5.4 3.9 4.5 5.0 4.6 3.4 2.6 4.7 4.8 5.6 6.5 6.5 6.5 6.5 6.3 6.0
2.7 2.5 2.4 2.0 1.7 1.5 1.5 1.4 1.2 1.1 1.0 0.8 0.5 0.3 0.8 1.7 2.4 3.0 3.1 3.4 4.0 3.6 4.5 4.7 3.8 4.0 5.5 5.3 4.5 3.1 2.6 3.9 3.2 5.1 3.9 4.5 3.0 4.5 5.7 6.5 6.5 6.5 6.5 6.5 6.5 6.2 6.5
3.2 2.6 2.5 2.2 1.9 1.6 1.6 1.5 1.4 1.3 1.0 0.8 0.5 0.5 0.7 1.4 2.2 2.8 3.1 3.3 4.6 4.1 3.4 4.7 3.5 5.1 4.1 4.7 4.5 3.8 2.8 3.0 4.7 5.3 4.8 3.1 2.6 6.5 6.5 6.5 6.5 6.5 6.5 6.5 6.5 6.5 6.5
4.0 3.2 2.6 2.3 2.1 1.9 1.7 1.6 1.4 1.2 1.0 0.9 0.9 1.0 1.0 1.4 2.1 2.6 2.0 1.9 3.1 3.7 1.6 4.8 5.2 5.4 5.3 4.3 4.5 4.0 2.1 3.2 4.9 3.0 6.5 4.9 6.5 6.5 6.5 6.5 6.5 6.5 6.5 6.5 6.5 6.5 6.5
4.3 4.0 3.1 2.5 2.2 2.1 1.9 1.8 1.4 1.3 1.2 1.1 1.1 1.3 1.3 1.6 2.1 2.2 0.8 1.4 2.9 3.6 4.8 5.1 5.6 5.4 5.6 4.1 4.8 4.2 2.5 4.8 5.1 6.5 6.3 6.5 6.5 6.5 6.5 6.5 6.5 6.5 6.5 6.5 6.5 6.5 6.5
4.5 4.2 3.9 3.0 2.5 2.3 1.9 2.0 1.7 1.4 1.3 1.3 1.3 1.5 1.6 1.9 2.3 0.9 0.6 1.3 1.5 3.3 4.5 5.8 5.5 5.2 5.1 4.5 4.7 4.1 3.3 5.1 6.0 6.5 6.5 6.5 6.5 6.4 6.5 6.5 6.5 6.5 6.5 6.5 6.5 6.5 6.5
4.8 4.4 4.3 4.0 3.1 2.5 2.3 1.7 1.8 1.5 1.2 1.5 1.6 1.6 1.8 2.2 2.2 0.3 1.2 1.0 1.6 2.7 6.5 6.5 6.1 5.9 5.7 5.1 5.7 5.4 4.1 5.2 5.7 6.5 6.5 6.5 6.4 6.5 6.5 6.5 6.5 6.5 6.5 6.5 6.5 6.5 6.5
5.0 4.5 4.1 4.4 3.9 3.2 2.5 2.1 1.8 1.7 1.5 1.4 1.7 1.9 1.2 3.1 0.5 0.8 1.3 0.8 1.9 3.3 6.5 6.5 6.2 6.3 5.6 5.4 5.7 5.7 4.9 5.1 6.5 6.5 6.5 6.5 6.5 6.5 6.5 6.5 6.5 6.5 6.5 6.5 6.5 6.5 6.5
4.9 4.7 4.1 4.2 4.1 3.6 3.0 2.6 2.1 1.9 1.8 1.7 1.8 2.3 2.2 0.8 -0.6 -0.1 -0.1 1.1 2.6 6.5 6.5 6.5 6.2 6.3 6.4 5.6 5.9 5.0 5.5 4.2 5.2 6.5 6.5 6.5 6.2 6.4 6.5 6.5 6.5 6.5 6.5 6.5 6.5 6.5 6.5
4.7 5.0 4.6 4.2 4.2 3.8 3.5 3.0 3.0 2.5 2.0 1.8 1.2 1.3 1.0 0.3 0.9 -0.6 -0.1 2.3 6.5 6.5 6.5 6.5 6.5 6.5 6.5 6.5 6.5 6.3 6.5 6.5 6.5 6.5 6.5 6.5 6.5 6.5 6.4 6.5 6.5 6.5 6.5 6.5 6.5 6.5 6.5
4.3 5.1 4.9 4.5 4.2 3.9 3.8 3.4 3.5 3.5 2.5 2.4 1.9 1.3 -0.7 -1.1 -0.9 -0.4 1.4 6.2 6.5 6.5 6.5 6.5 6.5 6.5 6.5 6.5 6.5 6.5 6.5 6.5 6.5 6.5 6.5 6.5 6.5 6.5 6.4 6.5 6.5 6.5 6.5 6.5 6.5 6.5 6.5
4.3 4.5 5.1 4.7 4.3 3.7 3.9 3.5 3.4 4.1 3.5 2.2 1.9 -1.1 -1.2 -1.0 -0.6 -0.5 3.6 6.5 6.5 6.5 6.5 6.5 6.5 6.5 6.5 6.5 6.5 6.5 6.5 6.5 6.5 6.5 6.5 6.5 6.5 6.5 6.5 6.4 6.5 6.5 6.5 6.5 6.5 6.5 6.5
4.4 4.4 4.2 4.5 4.1 4.0 3.7 3.5 3.4 3.5 3.7 3.0 1.3 0.9 0.3 -0.0 -0.5 0.9 5.7 6.5 6.5 6.4 6.2 6.5 6.5 6.5 6.5 6.5 6.5 6.5 6.5 6.5 6.5 6.4 6.1 6.5 6.5 6.5 6.5 6.4 6.4 6.5 6.5 6.5 6.5 6.5 6.5
4.5 4.6 4.7 4.5 4.3 4.0 3.6 3.3 3.3 3.4 4.1 3.6 3.0 3.3 1.8 0.7 0.1 2.2 6.5 6.5 6.5 6.1 6.2 6.5 6.5 6.5 6.5 6.5 6.5 6.5 6.5 6.5 6.5 6.5 6.1 6.5 6.5 6.5 6.5 6.5 6.5 6.5 6.5 6.5 6.5 6.5 6.5
4.4 4.3 4.5 4.5 4.4 4.1 3.7 3.2 2.8 2.2 3.0 2.9 3.8 6.2 2.4 1.7 5.3 4.5 6.5 6.5 6.3 6.4 5.8 6.4 6.4 6.5 6.5 6.5 6.5 6.5 6.5 6.5 5.4 6.3 6.5 6.4 6.5 6.5 6.5 6.5 6.5 6.5 6.5 6.5 6.5 6.5 6.5
5.0 4.5 4.9 4.6 4.4 4.1 3.5 3.1 2.4 2.0 2.3 2.9 3.7 3.3 3.0 3.4 6.5 6.5 6.5 6.5 6.3 6.5 6.5 6.5 6.5 6.5 6.5 6.5 6.5 6.5 6.5 6.0 5.7 6.4 6.5 6.4 6.5 6.5 6.5 6.5 6.5 6.5 6.5 6.5 6.5 6.5 6.5
4.6 4.7 4.2 4.0 3.9 3.8 3.5 2.8 2.1 1.9 2.0 0.9 2.7 6.5 4.4 3.6 3.7 6.4 6.5 6.5 6.5 5.9 6.4 6.2 6.4 6.3 6.5 6.5 6.5 6.5 6.5 6.4 5.7 6.2 7.1 5.8 6.5 6.5 6.5 6.5 6.5 6.5 6.5 6.5 6.5 6.5 6.5
4.2 3.8 3.9 3.6 3.6 4.1 3.4 3.0 2.2 1.7 1.6 2.9 3.3 5.9 4.6 6.5 6.1 6.2 6.4 6.5 6.5 6.5 6.3 6.1 6.5 6.5 6.5 6.5 6.5 6.5 6.5 6.5 6.3 6.5 5.4 6.0 6.5 6.5 6.5 6.5 6.5 6.5 6.5 6.5 6.5 6.5 6.5
4.1 4.0 3.9 3.4 2.9 3.1 3.2 2.8 2.0 2.0 2.8 4.2 3.3 3.9 3.4 4.1 5.2 6.2 6.5 6.5 6.5 6.5 6.5 6.5 6.5 6.5 6.5 6.5 6.5 6.5 6.5 6.5 6.5 6.3 6.5 5.9 6.5 6.5 6.5 6.5 6.5 6.5 6.5 6.5 6.5 6.5 6.5
3.6 3.6 3.4 3.6 3.9 3.3 2.8 4.0 2.6 2.2 4.2 3.7 1.7 1.4 3.2 6.4 5.7 6.5 6.5 6.5 6.5 6.1 6.1 5.6 5.8 6.5 6.5 6.4 3.4 2.8 2.2 1.6 3.5 6.5 6.5 6.5 6.5 6.5 6.5 6.5 6.5 6.5 6.5 6.5 6.5 6.5 6.5
3.4 3.3 3.3 3.3 3.5 4.0 5.0 4.5 3.6 4.5 3.4 1.9 0.5 1.5 2.3 6.5 6.4 6.5 6.3 6.2 6.5 6.4 6.4 5.8 5.4 5.8 4.4 1.4 1.8 2.3 0.9 2.4 2.7 5.9 6.1 6.5 6.5 6.5 6.5 6.5 6.5 6.5 6.5 6.5 6.5 6.5 6.5
3.6 3.7 3.5 3.6 3.5 4.3 5.2 4.6 4.8 5.4 3.2 1.9 0.6 2.1 1.8 6.5 6.1 6.4 6.3 6.3 5.0 5.1 5.2 6.0 4.4 3.4 3.5 5.1 6.5 6.5 6.5 6.5 6.5 6.5 6.5 6.3 6.5 6.5 6.5 6.5 6.5 6.5 6.5 6.5 6.5 6.5 6.5
3.9 3.6 3.6 4.1 4.2 5.0 4.7 5.0 5.3 4.8 3.1 1.5 0.5 0.8 1.4 4.7 6.4 4.0 5.4 5.6 6.5 6.5 6.0 6.2 3.7 3.9 4.9 6.6 6.5 6.5 6.5 6.5 6.5 6.5 6.4 6.5 6.5 6.5 6.5 6.5 6.5 6.5 6.5 -1.0 2.2 6.5 4.6
4.3 4.0 4.5 5.7 5.8 5.5 5.7 4.9 5.3 3.9 3.0 2.5 -0.2 -0.7 2.3 2.1 0.7 0.8 5.3 6.1 3.6 3.2 6.6 4.8 4.3 5.4 4.1 6.5 6.5 6.5 6.5 6.5 6.5 6.5 6.5 6.5 6.5 6.5 6.5 6.5 6.5 6.5 3.4 -0.4 6.5 6.5 4.3
4.3 4.2 4.5 4.5 5.3 4.3 5.0 5.4 4.4 4.7 3.7 2.2 -0.5 -1.1 2.6 1.1 -0.0 -2.0 -1.2 1.5 1.1 1.0 6.5 3.8 5.8 5.2 6.4 6.5 6.5 6.5 6.5 6.5 6.5 6.5 6.5 6.5 6.5 6.5 6.5 6.5 6.5 3.6 5.4 6.5 5.1 2.1 1.8
4.1 4.3 4.4 5.2 5.7 5.3 5.0 5.1 5.5 5.1 3.8 3.3 1.3 -1.3 -2.5 -1.4 -2.0 -2.6 -3.5 -3.2 -3.0 -2.3 0.5 2.0 4.5 2.2 5.0 6.5 6.5 6.5 6.5 6.5 6.5 6.5 6.5 6.5 6.5 6.5 6.5 6.5 2.8 -0.7 2.0 0.1 0.5 1.3 2.6
Wind_Speed
5 5 4 2 2 2 4 5 7 7 7 7 7 7 8 8 7 8 8 7 8 8 11 12 13 12 2 6 3 9 22 17 5 3 5 3 4 4 5 5 3 4 2 5 5 8 6
7 6 4 3 2 2 3 4 6 6 6 6 6 6 6 5 4 5 6 9 9 9 10 12 14 6 3 5 5 14 16 8 6 4 5 6 3 5 6 4 4 2 6 4 4 4 3
8 7 6 4 3 2 2 3 4 4 5 5 5 4 3 3 2 1 5 9 10 10 10 9 10 4 8 1 7 15 12 3 5 3 3 3 3 5 5 5 5 3 4 3 2 2 2
10 9 8 6 4 2 2 2 3 4 4 4 4 3 2 1 0 2 6 10 10 10 10 6 5 4 3 4 8 7 10 3 7 5 3 4 7 8 5 5 5 4 4 1 1 3 1
12 10 9 8 6 4 2 0 2 3 3 4 4 2 2 1 1 4 7 10 8 10 5 3 5 4 2 8 6 6 6 5 7 3 6 3 6 4 3 4 4 6 1 1 5 4 3
14 12 11 10 8 6 4 2 1 2 3 4 4 3 2 2 2 5 9 5 6 4 7 3 3 3 6 4 5 5 5 5 4 3 5 8 5 4 3 3 4 3 2 3 4 1 1
15 14 13 12 10 8 5 3 1 2 3 4 3 4 3 3 3 5 4 3 4 5 10 4 2 3 2 8 3 7 5 6 4 8 3 4 5 1 3 2 3 5 2 3 3 2 3
18 16 15 13 12 10 7 5 3 1 3 3 2 2 4 3 4 3 4 5 3 3 6 4 2 3 2 2 4 9 8 5 5 3 3 5 1 2 3 2 2 1 1 4 3 1 3
19 17 16 15 14 13 10 6 4 1 2 3 3 2 4 4 2 5 4 4 2 1 5 3 2 3 4 4 3 6 6 2 5 3 4 4 1 2 3 2 0 0 3 2 4 4 2
21 19 17 17 16 14 12 10 5 3 2 1 3 5 6 2 4 0 2 3 2 1 4 6 5 5 3 1 4 2 3 2 6 3 3 4 2 2 4 3 2 3 2 1 2 4 3
24 22 20 18 17 15 13 11 8 5 2 1 1 2 7 3 6 3 1 4 2 2 3 4 4 2 3 5 3 7 3 5 3 3 2 1 1 2 2 2 1 3 1 2 2 3 3
25 23 22 21 19 17 15 12 9 7 4 2 1 2 4 5 3 1 3 1 3 4 3 2 2 4 3 5 4 5 4 6 3 3 4 3 1 4 2 2 2 3 1 3 3 2 1
27 25 24 23 22 19 17 15 11 9 6 7 11 10 5 2 3 5 2 3 4 4 1 1 2 3 2 4 3 5 4 4 2 3 3 2 2 1 2 2 3 3 3 4 5 3 5
29 28 25 25 24 20 18 15 12 10 8 8 5 5 7 4 4 2 2 3 1 2 2 1 2 2 2 4 2 4 2 3 2 3 2 2 3 1 4 2 0 1 1 3 5 3 4
31 30 28 26 25 24 22 19 17 13 12 11 8 2 2 5 7 2 3 3 3 3 4 6 2 2 1 1 2 3 1 1 0 1 4 3 1 2 4 3 2 1 1 1 0 1 3
33 31 30 28 28 27 25 24 21 17 16 14 3 3 3 8 6 3 4 3 3 2 5 2 2 1 1 1 2 4 1 0 2 2 2 1 4 2 2 0 3 2 1 2 2 4 6
34 31 29 27 29 28 28 27 25 21 17 11 2 3 2 8 3 4 3 4 2 2 1 2 2 3 1 0 0 1 1 1 1 1 3 4 3 2 1 6 6 3 1 2 2 3 4
32 28 24 29 29 29 31 30 28 24 17 4 1 2 2 1 3 0 3 4 2 2 1 2 3 2 5 5 3 3 3 2 3 1 4 1 4 3 7 3 2 1 6 5 4 5 2
21 21 25 21 22 26 30 33 33 32 25 4 4 2 2 1 3 2 2 2 1 3 3 3 3 1 1 4 1 3 2 1 1 2 5 4 1 3 6 4 5 3 4 4 4 3 7
19 18 16 15 13 26 30 35 36 35 26 4 3 3 2 3 1 4 5 3 3 3 2 4 3 3 3 3 2 3 4 1 2 1 4 2 2 7 9 6 4 4 5 6 6 3 5
13 14 14 14 13 16 31 34 36 36 33 3 1 2 2 3 3 4 4 6 5 4 1 2 1 4 5 3 0 4 1 1 2 4 3 3 5 2 4 4 5 12 9 9 14 20 10
14 15 13 14 13 17 31 36 37 36 23 2 4 4 3 2 3 6 1 6 8 3 5 3 3 1 3 5 6 6 6 4 6 3 2 3 3 2 5 6 7 11 8 16 21 21 18
13 12 12 13 13 12 30 35 36 35 16 3 1 2 4 4 2 4 5 6 8 8 2 3 5 4 2 4 2 2 3 4 2 6 5 3 3 3 6 4 7 10 11 15 5 4 9
11 11 11 13 14 14 25 35 37 34 12 3 2 3 4 2 2 4 5 6 6 5 6 3 3 5 3 6 6 4 7 7 7 4 4 5 4 1 4 5 4 5 2 2 7 4 7
10 12 12 15 17 17 23 34 35 34 11 3 3 3 3 3 2 1 5 4 5 4 4 4 3 3 4 2 2 5 3 4 4 3 1 1 4 2 2 3 9 5 2 4 5 6 4
9 8 9 16 22 22 27 33 32 31 13 4 2 1 3 6 6 4 5 4 4 3 2 3 3 3 1 2 2 4 4 3 3 2 3 1 2 4 3 3 7 5 3 4 3 5 6
8 4 2 12 20 21 27 31 32 26 11 4 2 4 3 3 1 1 3 3 5 4 4 2 2 2 2 2 3 4 4 2 3 6 6 3 2 12 10 6 9 4 4 4 5 5 4
8 6 6 13 17 24 29 30 29 26 15 4 2 6 2 3 1 4 2 4 3 1 4 4 3 1 1 3 3 4 3 4 0 3 6 8 8 5 4 5 11 6 3 8 3 2 3
13 10 9 10 15 23 27 27 27 26 16 8 3 3 7 6 3 2 5 3 1 1 5 4 0 5 5 3 1 2 2 2 3 4 3 3 6 5 10 7 2 2 1 1 2 4 3
Wind_Direction
193 187 173 140 107 71 61 53 59 50 53 57 60 69 71 75 79 77 63 36 11 2 359 359 353 346 27 49 24 317 332 340 354 42 49 47 57 111 96 102 76 67 91 53 69 74 82
193 194 190 179 157 113 74 53 54 54 53 65 62 59 66 72 84 87 41 16 5 1 355 356 357 357 39 74 313 331 337 335 20 29 24 38 93 89 90 67 69 78 92 114 49 77 93
194 195 193 197 188 151 87 60 50 55 54 51 62 63 73 81 76 20 356 351 347 342 344 345 359 69 56 154 336 341 355 339 347 1 66 24 110 77 130 94 159 117 71 109 99 133 104
197 197 197 195 191 182 120 74 50 35 39 40 40 49 58 81 28 311 328 335 335 336 325 344 26 66 91 309 330 5 342 329 357 15 74 70 87 93 65 114 43 62 59 60 157 133 354
202 198 199 200 193 186 174 101 54 41 27 22 23 41 39 63 17 325 324 328 333 337 4 6 37 79 63 336 25 326 24 339 307 360 29 66 69 82 61 82 39 18 246 248 317 194 138
203 200 200 202 204 193 189 182 72 29 22 15 24 60 64 39 4 335 327 323 343 39 359 40 58 55 15 321 311 338 333 349 13 347 25 39 48 76 49 83 231 201 232 257 255 214 188
207 203 203 199 201 204 198 195 171 33 18 11 25 60 68 47 7 347 13 32 22 355 35 85 303 117 328 304 282 3 350 348 22 45 58 8 74 213 239 133 112 122 173 254 240 212 211
207 206 204 203 198 203 200 204 189 54 13 14 41 81 40 27 12 45 71 83 111 154 80 26 53 53 55 328 9 348 4 59 53 71 349 26 79 33 77 81 82 103 280 272 277 159 189
206 207 208 203 200 198 194 205 200 156 25 24 54 40 4 354 47 46 77 111 3 124 85 6 43 42 323 36 83 323 12 7 65 71 23 113 7 353 60 57 34 300 227 281 269 325 245
204 204 208 210 202 199 195 188 198 193 130 69 22 5 359 357 55 162 46 323 352 121 80 345 349 8 348 36 45 300 12 78 38 111 81 89 305 86 70 83 94 296 353 4 353 31 269
204 200 201 208 207 200 194 190 186 193 184 162 325 32 46 134 140 83 177 331 321 52 17 352 354 296 7 66 314 3 353 20 92 118 109 136 106 115 126 163 338 210 39 87 79 104 29
205 199 198 200 202 198 190 192 186 189 184 133 23 141 148 42 59 47 330 343 52 45 267 23 339 359 12 18 12 321 32 52 133 84 45 70 17 31 61 55 36 138 43 64 60 91 359
206 199 197 196 197 193 190 181 185 190 175 138 86 79 73 59 130 333 13 59 36 127 77 59 38 29 88 355 9 30 24 30 59 35 19 85 33 21 90 92 22 42 36 324 342 358 238
201 198 197 193 190 190 189 175 182 195 177 167 136 83 59 67 12 4 67 54 189 145 186 106 97 60 74 348 21 3 54 34 31 79 99 108 330 38 355 51 7 93 89 163 259 258 280
202 197 194 194 193 191 188 180 178 184 172 151 128 21 46 354 8 83 84 63 214 185 134 143 118 104 15 305 298 21 75 156 149 149 145 93 304 21 35 355 25 119 183 163 14 222 11
203 197 195 198 199 194 187 184 173 178 174 162 101 76 343 336 9 63 80 231 179 104 124 143 150 122 203 281 344 14 46 48 80 57 133 195 359 20 300 269 42 132 239 69 24 312 298
200 198 199 204 204 194 185 180 173 172 169 157 81 99 251 339 79 52 160 212 142 60 40 129 178 143 144 121 102 314 313 59 1 121 120 130 112 257 274 199 178 142 234 53 118 167 215
194 197 203 215 215 195 186 173 164 156 152 99 116 149 292 292 70 18 148 177 128 146 64 108 103 134 174 157 162 235 221 169 352 147 136 45 147 232 231 55 21 118 189 152 137 257 210
213 198 208 203 202 194 182 170 163 159 160 146 132 118 306 335 151 204 143 98 81 154 182 133 134 99 94 163 76 204 204 173 280 135 165 195 308 345 317 5 351 205 209 146 119 87 210
181 177 176 180 205 197 182 166 163 167 170 103 144 112 353 53 3 143 138 195 182 11 80 73 110 82 86 163 28 198 231 172 346 126 121 105 117 192 242 242 125 186 187 202 172 192 247
168 170 180 186 195 188 172 167 164 165 173 154 357 157 159 178 234 156 136 151 157 189 45 170 82 199 166 157 54 221 210 60 36 355 53 108 217 214 278 232 214 239 211 191 206 229 228
176 176 180 189 180 180 171 165 165 166 170 105 139 138 49 90 103 104 160 194 186 174 149 228 181 94 158 163 188 211 152 196 214 39 100 3 267 73 285 287 260 274 226 225 234 250 249
166 178 181 184 184 178 173 166 165 165 169 114 220 43 113 138 136 127 194 187 201 155 134 73 156 119 146 235 115 129 85 68 147 153 171 149 133 31 272 317 327 294 243 211 204 206 207
170 184 195 197 198 193 177 168 168 174 158 138 136 148 99 155 171 203 174 171 176 196 139 143 127 135 153 114 114 73 57 69 61 42 34 144 144 207 277 348 300 268 330 123 226 235 242
179 197 202 211 203 201 184 174 172 174 144 98 153 130 122 137 154 149 151 124 91 68 65 99 42 4 149 119 65 354 336 20 9 22 71 88 149 226 240 215 300 306 288 141 163 278 191
188 205 230 234 210 196 180 173 172 167 129 87 71 33 105 122 218 129 130 172 135 134 103 80 44 3 326 82 109 213 233 222 262 341 359 98 55 190 128 221 243 225 227 181 137 286 177
178 184 199 135 150 162 168 170 166 160 133 108 81 2 97 109 312 88 160 154 114 90 100 117 146 133 343 131 175 192 246 174 246 186 171 141 204 216 219 246 278 221 158 145 93 255 149
147 119 91 137 153 156 159 163 163 161 141 100 94 12 99 90 44 15 43 130 84 120 146 154 123 309 100 175 164 215 177 225 63 184 185 169 161 194 180 220 273 141 91 176 174 12 143
136 125 114 121 158 167 168 166 164 161 142 103 94 42 42 72 100 21 63 53 5 53 120 177 94 170 166 108 214 115 214 146 176 261 330 263 196 190 191 215 230 246 140 292 163 135 188